Time,TemperatureF,DewpointF,PressureIn,WindDirection,WindDirectionDegrees,WindSpeedMPH,WindSpeedGustMPH,Humidity,HourlyPrecipIn,Conditions,Clouds,dailyrainin,SolarRadiationWatts/m^2,SoftwareType,DateUTC
2013-06-18 00:10:00,55.7,54.0,30.02,SE,131,6.0,11.0,94,0.00,,,0.00,0,weatherlink.com 1.10,2013-06-18 07:10:00,
2013-06-18 00:25:00,55.4,54.0,30.02,SE,132,6.0,10.0,94,0.00,,,0.00,0,weatherlink.com 1.10,2013-06-18 07:25:00,
2013-06-18 00:40:00,55.2,54.0,30.02,ESE,105,7.0,12.0,95,0.00,,,0.00,0,weatherlink.com 1.10,2013-06-18 07:40:00,
2013-06-18 00:55:00,55.0,54.0,30.02,East,95,5.0,13.0,95,0.00,,,0.00,0,weatherlink.com 1.10,2013-06-18 07:55:00,
2013-06-18 01:10:00,55.0,54.0,30.02,ESE,103,4.0,15.0,95,0.00,,,0.00,0,weatherlink.com 1.10,2013-06-18 08:10:00,
2013-06-18 01:25:00,54.9,54.0,30.02,SE,135,6.0,8.0,95,0.00,,,0.00,0,weatherlink.com 1.10,2013-06-18 08:25:00,
2013-06-18 01:40:00,55.1,54.0,30.02,East,98,5.0,8.0,95,0.00,,,0.00,0,weatherlink.com 1.10,2013-06-18 08:40:00,
2013-06-18 01:55:00,55.2,54.0,30.02,SE,133,4.0,9.0,95,0.00,,,0.00,0,weatherlink.com 1.10,2013-06-18 08:55:00,
2013-06-18 02:10:00,55.3,54.0,30.01,SE,130,3.0,6.0,95,0.00,,,0.00,0,weatherlink.com 1.10,2013-06-18 09:10:00,
2013-06-18 02:25:00,55.3,54.0,30.01,ESE,115,5.0,8.0,95,0.00,,,0.00,0,weatherlink.com 1.10,2013-06-18 09:25:00,
2013-06-18 02:40:00,55.3,54.0,30.01,SE,124,3.0,6.0,94,0.00,,,0.00,0,weatherlink.com 1.10,2013-06-18 09:40:00,
2013-06-18 02:55:00,55.3,54.0,30.01,WSW,237,1.0,6.0,94,0.00,,,0.00,0,weatherlink.com 1.10,2013-06-18 09:55:00,
2013-06-18 03:10:00,55.2,54.0,30.01,South,176,4.0,5.0,94,0.00,,,0.00,0,weatherlink.com 1.10,2013-06-18 10:10:00,
2013-06-18 03:25:00,54.9,52.0,30.01,SW,215,4.0,5.0,91,0.00,,,0.00,0,weatherlink.com 1.10,2013-06-18 10:25:00,
2013-06-18 03:40:00,55.0,52.0,30.01,SSE,152,0.0,5.0,90,0.00,,,0.00,0,weatherlink.com 1.10,2013-06-18 10:40:00,
2013-06-18 03:55:00,54.7,52.0,30.01,SW,223,1.0,4.0,90,0.00,,,0.00,0,weatherlink.com 1.10,2013-06-18 10:55:00,
2013-06-18 04:10:00,54.7,52.0,30.01,SW,230,0.0,4.0,89,0.00,,,0.00,0,weatherlink.com 1.10,2013-06-18 11:10:00,
2013-06-18 04:25:00,54.6,51.0,30.01,SSW,199,0.0,3.0,88,0.00,,,0.00,0,weatherlink.com 1.10,2013-06-18 11:25:00,
2013-06-18 04:40:00,54.7,51.0,30.01,WSW,240,1.0,7.0,87,0.00,,,0.00,0,weatherlink.com 1.10,2013-06-18 11:40:00,
2013-06-18 04:55:00,54.5,52.0,30.01,SW,223,0.0,2.0,90,0.00,,,0.00,0,weatherlink.com 1.10,2013-06-18 11:55:00,
2013-06-18 05:10:00,53.9,51.0,30.01,SSW,207,0.0,3.0,91,0.00,,,0.00,0,weatherlink.com 1.10,2013-06-18 12:10:00,
2013-06-18 05:25:00,53.8,52.0,30.01,ESE,121,0.0,3.0,92,0.00,,,0.00,0,weatherlink.com 1.10,2013-06-18 12:25:00,
2013-06-18 05:40:00,53.4,51.0,30.01,SSE,165,0.0,2.0,90,0.00,,,0.00,0,weatherlink.com 1.10,2013-06-18 12:40:00,
2013-06-18 05:56:00,53.8,51.0,30.02,SSW,213,2.0,5.0,89,0.00,,,0.00,0,weatherlink.com 1.10,2013-06-18 12:56:00,
2013-06-18 06:11:00,54.0,51.0,30.02,SSW,211,5.0,6.0,88,0.00,,,0.00,0,weatherlink.com 1.10,2013-06-18 13:11:00,
2013-06-18 06:26:00,54.2,51.0,30.02,SW,220,0.0,3.0,88,0.00,,,0.00,0,weatherlink.com 1.10,2013-06-18 13:26:00,
2013-06-18 06:41:00,54.3,51.0,30.02,WSW,244,1.0,4.0,87,0.00,,,0.00,0,weatherlink.com 1.10,2013-06-18 13:41:00,
2013-06-18 06:56:00,54.6,51.0,30.02,SW,219,2.0,3.0,87,0.00,,,0.00,0,weatherlink.com 1.10,2013-06-18 13:56:00,
2013-06-18 07:11:00,55.1,51.0,30.02,SW,215,2.0,5.0,86,0.00,,,0.00,0,weatherlink.com 1.10,2013-06-18 14:11:00,
2013-06-18 07:26:00,55.6,51.0,30.02,SW,217,1.0,4.0,84,0.00,,,0.00,0,weatherlink.com 1.10,2013-06-18 14:26:00,
2013-06-18 07:41:00,56.2,51.0,30.02,SW,230,2.0,4.0,83,0.00,,,0.00,0,weatherlink.com 1.10,2013-06-18 14:41:00,
2013-06-18 07:56:00,56.9,51.0,30.02,SSW,197,2.0,7.0,80,0.00,,,0.00,0,weatherlink.com 1.10,2013-06-18 14:56:00,
2013-06-18 08:11:00,58.3,51.0,30.02,WSW,249,1.0,5.0,77,0.00,,,0.00,0,weatherlink.com 1.10,2013-06-18 15:11:00,
2013-06-18 08:26:00,59.8,52.0,30.02,West,259,0.0,7.0,74,0.00,,,0.00,0,weatherlink.com 1.10,2013-06-18 15:26:00,
2013-06-18 08:41:00,60.7,52.0,30.03,SE,144,3.0,6.0,74,0.00,,,0.00,0,weatherlink.com 1.10,2013-06-18 15:41:00,
2013-06-18 08:56:00,61.3,53.0,30.03,South,184,2.0,6.0,74,0.00,,,0.00,0,weatherlink.com 1.10,2013-06-18 15:56:00,
2013-06-18 09:11:00,61.7,53.0,30.03,SSE,149,3.0,7.0,73,0.00,,,0.00,0,weatherlink.com 1.10,2013-06-18 16:11:00,
2013-06-18 09:26:00,62.4,54.0,30.03,South,188,3.0,6.0,73,0.00,,,0.00,0,weatherlink.com 1.10,2013-06-18 16:26:00,
2013-06-18 09:41:00,63.4,53.0,30.03,SSE,148,2.0,6.0,70,0.00,,,0.00,0,weatherlink.com 1.10,2013-06-18 16:41:00,
2013-06-18 09:56:00,64.2,54.0,30.02,SSE,156,1.0,7.0,69,0.00,,,0.00,0,weatherlink.com 1.10,2013-06-18 16:56:00,
2013-06-18 10:11:00,65.1,54.0,30.02,SSE,164,2.0,8.0,67,0.00,,,0.00,0,weatherlink.com 1.10,2013-06-18 17:11:00,
2013-06-18 10:26:00,65.7,54.0,30.02,SSE,151,4.0,10.0,66,0.00,,,0.00,0,weatherlink.com 1.10,2013-06-18 17:26:00,
2013-06-18 10:41:00,65.7,53.0,30.02,SW,233,3.0,9.0,64,0.00,,,0.00,0,weatherlink.com 1.10,2013-06-18 17:41:00,
2013-06-18 10:56:00,65.9,53.0,30.02,SSW,192,7.0,12.0,63,0.00,,,0.00,0,weatherlink.com 1.10,2013-06-18 17:56:00,
2013-06-18 11:11:00,66.7,52.0,30.02,WSW,242,8.0,10.0,59,0.00,,,0.00,0,weatherlink.com 1.10,2013-06-18 18:11:00,
2013-06-18 11:26:00,67.8,48.0,30.02,WSW,248,6.0,11.0,49,0.00,,,0.00,0,weatherlink.com 1.10,2013-06-18 18:26:00,
2013-06-18 11:41:00,68.5,48.0,30.02,WSW,245,7.0,14.0,49,0.00,,,0.00,0,weatherlink.com 1.10,2013-06-18 18:41:00,
2013-06-18 11:56:00,70.1,48.0,30.02,WNW,300,5.0,14.0,45,0.00,,,0.00,0,weatherlink.com 1.10,2013-06-18 18:56:00,
2013-06-18 12:11:00,69.6,47.0,30.02,WNW,294,3.0,13.0,44,0.00,,,0.00,0,weatherlink.com 1.10,2013-06-18 19:11:00,
2013-06-18 12:26:00,69.6,47.0,30.02,SW,223,3.0,11.0,45,0.00,,,0.00,0,weatherlink.com 1.10,2013-06-18 19:26:00,
2013-06-18 12:41:00,69.6,47.0,30.02,SSW,202,7.0,13.0,44,0.00,,,0.00,0,weatherlink.com 1.10,2013-06-18 19:41:00,
2013-06-18 12:56:00,70.2,47.0,30.01,West,267,7.0,10.0,44,0.00,,,0.00,0,weatherlink.com 1.10,2013-06-18 19:56:00,
2013-06-18 13:11:00,70.1,46.0,30.01,WNW,291,5.0,13.0,43,0.00,,,0.00,0,weatherlink.com 1.10,2013-06-18 20:11:00,
2013-06-18 13:26:00,70.8,47.0,30.01,West,264,12.0,15.0,43,0.00,,,0.00,0,weatherlink.com 1.10,2013-06-18 20:26:00,
2013-06-18 13:41:00,69.9,47.0,30.02,WNW,296,5.0,14.0,44,0.00,,,0.00,0,weatherlink.com 1.10,2013-06-18 20:41:00,
2013-06-18 13:56:00,70.0,47.0,30.01,SW,226,5.0,15.0,44,0.00,,,0.00,0,weatherlink.com 1.10,2013-06-18 20:56:00,
2013-06-18 14:11:00,70.6,49.0,30.01,SW,233,5.0,11.0,46,0.00,,,0.00,0,weatherlink.com 1.10,2013-06-18 21:11:00,
2013-06-18 14:26:00,70.5,47.0,30.01,SW,219,6.0,12.0,44,0.00,,,0.00,0,weatherlink.com 1.10,2013-06-18 21:26:00,
2013-06-18 14:41:00,70.2,54.0,30.01,SSW,196,5.0,11.0,56,0.00,,,0.00,0,weatherlink.com 1.10,2013-06-18 21:41:00,
2013-06-18 14:56:00,70.9,49.0,30.01,NNW,336,5.0,11.0,46,0.00,,,0.00,0,weatherlink.com 1.10,2013-06-18 21:56:00,
2013-06-18 15:12:00,71.3,48.0,30.00,West,267,0.0,11.0,44,0.00,,,0.00,0,weatherlink.com 1.10,2013-06-18 22:12:00,
2013-06-18 15:27:00,71.6,48.0,30.01,SSW,196,7.0,11.0,44,0.00,,,0.00,0,weatherlink.com 1.10,2013-06-18 22:27:00,
2013-06-18 15:42:00,71.0,48.0,30.00,SSW,211,7.0,9.0,44,0.00,,,0.00,0,weatherlink.com 1.10,2013-06-18 22:42:00,
2013-06-18 15:57:00,70.7,48.0,30.00,WSW,253,2.0,13.0,45,0.00,,,0.00,0,weatherlink.com 1.10,2013-06-18 22:57:00,
2013-06-18 16:12:00,70.9,49.0,29.99,West,267,4.0,11.0,46,0.00,,,0.00,0,weatherlink.com 1.10,2013-06-18 23:12:00,
2013-06-18 16:27:00,70.2,49.0,29.99,NNW,332,3.0,13.0,47,0.00,,,0.00,0,weatherlink.com 1.10,2013-06-18 23:27:00,
2013-06-18 16:42:00,70.5,50.0,29.99,WSW,240,2.0,14.0,48,0.00,,,0.00,0,weatherlink.com 1.10,2013-06-18 23:42:00,
2013-06-18 16:57:00,70.0,49.0,29.98,West,281,6.0,14.0,48,0.00,,,0.00,0,weatherlink.com 1.10,2013-06-18 23:57:00,
2013-06-18 17:12:00,69.5,50.0,29.99,SW,226,4.0,11.0,50,0.00,,,0.00,0,weatherlink.com 1.10,2013-06-19 00:12:00,
2013-06-18 17:27:00,69.2,51.0,29.98,SSW,200,3.0,9.0,53,0.00,,,0.00,0,weatherlink.com 1.10,2013-06-19 00:27:00,
2013-06-18 17:42:00,69.3,50.0,29.98,WSW,258,4.0,12.0,51,0.00,,,0.00,0,weatherlink.com 1.10,2013-06-19 00:42:00,
2013-06-18 17:57:00,68.3,51.0,29.98,NE,55,1.0,10.0,55,0.00,,,0.00,0,weatherlink.com 1.10,2013-06-19 00:57:00,
2013-06-18 18:12:00,66.8,50.0,29.98,South,184,2.0,14.0,56,0.00,,,0.00,0,weatherlink.com 1.10,2013-06-19 01:12:00,
2013-06-18 18:27:00,66.8,50.0,29.98,ENE,69,5.0,13.0,55,0.00,,,0.00,0,weatherlink.com 1.10,2013-06-19 01:27:00,
2013-06-18 18:42:00,65.3,51.0,29.98,SSW,205,4.0,10.0,60,0.00,,,0.00,0,weatherlink.com 1.10,2013-06-19 01:42:00,
2013-06-18 18:57:00,65.8,50.0,29.98,SW,219,3.0,9.0,58,0.00,,,0.00,0,weatherlink.com 1.10,2013-06-19 01:57:00,
2013-06-18 19:12:00,64.9,51.0,29.98,SW,232,3.0,10.0,60,0.00,,,0.00,0,weatherlink.com 1.10,2013-06-19 02:12:00,
2013-06-18 19:27:00,63.3,51.0,29.98,WSW,248,2.0,10.0,64,0.00,,,0.00,0,weatherlink.com 1.10,2013-06-19 02:27:00,
2013-06-18 19:42:00,63.0,50.0,29.98,NW,321,2.0,8.0,63,0.00,,,0.00,0,weatherlink.com 1.10,2013-06-19 02:42:00,
2013-06-18 19:57:00,62.3,49.0,29.98,SSW,192,4.0,8.0,63,0.00,,,0.00,0,weatherlink.com 1.10,2013-06-19 02:57:00,
2013-06-18 20:12:00,61.5,49.0,29.98,SW,223,0.0,6.0,63,0.00,,,0.00,0,weatherlink.com 1.10,2013-06-19 03:12:00,
2013-06-18 20:27:00,60.0,49.0,29.99,West,268,0.0,8.0,67,0.00,,,0.00,0,weatherlink.com 1.10,2013-06-19 03:27:00,
2013-06-18 20:42:00,59.0,49.0,29.99,WSW,249,5.0,9.0,69,0.00,,,0.00,0,weatherlink.com 1.10,2013-06-19 03:42:00,
2013-06-18 20:57:00,58.2,49.0,29.99,NNW,336,0.0,8.0,72,0.00,,,0.00,0,weatherlink.com 1.10,2013-06-19 03:57:00,
2013-06-18 21:12:00,57.8,50.0,29.99,ESE,112,1.0,7.0,74,0.00,,,0.00,0,weatherlink.com 1.10,2013-06-19 04:12:00,
2013-06-18 21:27:00,57.4,50.0,29.99,ESE,109,0.0,3.0,76,0.00,,,0.00,0,weatherlink.com 1.10,2013-06-19 04:27:00,
2013-06-18 21:42:00,57.1,50.0,29.99,SE,142,0.0,3.0,77,0.00,,,0.00,0,weatherlink.com 1.10,2013-06-19 04:42:00,
2013-06-18 21:57:00,56.8,50.0,30.00,SE,131,0.0,1.0,78,0.00,,,0.00,0,weatherlink.com 1.10,2013-06-19 04:57:00,
2013-06-18 22:12:00,56.7,50.0,30.00,NW,323,0.0,2.0,78,0.00,,,0.00,0,weatherlink.com 1.10,2013-06-19 05:12:00,
2013-06-18 22:27:00,56.3,50.0,30.00,SW,219,1.0,4.0,80,0.00,,,0.00,0,weatherlink.com 1.10,2013-06-19 05:27:00,
2013-06-18 22:42:00,56.1,50.0,30.00,SSW,199,0.0,4.0,81,0.00,,,0.00,0,weatherlink.com 1.10,2013-06-19 05:42:00,
2013-06-18 22:57:00,55.7,50.0,30.01,WSW,240,0.0,3.0,82,0.00,,,0.00,0,weatherlink.com 1.10,2013-06-19 05:57:00,
2013-06-18 23:12:00,55.2,51.0,30.00,ESE,115,0.0,3.0,84,0.00,,,0.00,0,weatherlink.com 1.10,2013-06-19 06:12:00,
2013-06-18 23:27:00,55.0,50.0,30.00,SSE,153,0.0,2.0,83,0.00,,,0.00,0,weatherlink.com 1.10,2013-06-19 06:27:00,
2013-06-18 23:42:00,55.3,50.0,30.01,SW,233,0.0,5.0,83,0.00,,,0.00,0,weatherlink.com 1.10,2013-06-19 06:42:00,
2013-06-18 23:57:00,55.1,50.0,30.01,WNW,289,0.0,5.0,83,0.00,,,0.00,0,weatherlink.com 1.10,2013-06-19 06:57:00,